Location: Waco, TX
(31.5480°N, 97.1670°W)
Time: 02:00:58
(UTC-06:00)

ISS - Pass Details

Date: 18 November 2017
Orbit: 401 x 407 km, 51.6° (Epoch: 25 November)

Event Time Altitude Azimuth Distance (km) Brightness Sun altitude
Rises 22:49:25 0° 267° (W) 2,312 - -67.5°
Reaches altitude 10° 22:52:20 10° 296° (WNW) 1,454 - -68.0°
Maximum altitude 22:54:00 13° 327° (NNW) 1,276 - -68.4°
Drops below altitude 10° 22:55:40 10° 358° (N) 1,456 - -68.7°
Sets 22:58:36 0° 27° (NNE) 2,316 - -69.2°
